DELTA 1 DEB, 29189

Orbit data source: Space-Track

DELTA 1 DEB, 29189 is space debris in LEO originally from a launch on Thu, 11 Jan 1968 UTC launched from the Air Force Western Test Range (AFWTR). Debris objects in space refer to the collection of defunct objects orbiting the Earth. Examples of debris include non-operational satellites, rocket bodies, and fragments generated from explosions, collisions, or faulty payload assembly.

Loading next visibility...
Identifier
29189, 1968-002N
Orbit
LEO
Country
Flag of USUS
Related business
Manufacturer
Unknown
Mission
Spacecraft
Bus & Motor
Unknown
Mass
Unknown
Launch date (UTC)
1968-01-11 (58 years ago)
Launch vehicle
Unknown
Launch site
Air Force Western Test Range (AFWTR)
Object type
Payload
Rocket body
Debris
Shape & HBR
Unknown shape, 0.1 m
Radar Cross Section
Small (<0.1 m²)

Expand to show TLE details & history
Last TLE update: 3 days ago

TLE from 3 days ago
0 DELTA 1 DEB
1 29189U 68002N   26172.85371833  .00001035  00000-0  25750-2 0  9991
2 29189 105.8355 200.6445 0240357 224.2049 317.6298 13.15185697530148
Epoch: 2026-06-21T20:29Z
TLE epoch observation values (Epoch: 2026-06-21T20:29:21.263Z)
Latitude
-0.04541°
Longitude
163.24507°
Altitude
1,073.04 km
Speed
7.379 km/s
True Right ascension
01h 22m 31s
True Declination
0° 02' 43"
Sunlit
Object was in daylight at epoch
Visualization orbit readout
Latitude
Unknown
Longitude
Unknown
Altitude
Unknown
Speed
Unknown
Apparent Right ascension
Unknown
Apparent Declination
Unknown
Sunlit
N/A
Visualization observer readout
Local Sidereal Time
09:58:53
Azimuth
Unknown
Elevation
Unknown
Doppler factor
Unknown
Orbital elements
Apogee altitude
1,383.08 km
Perigee altitude
1,018.745 km
Semi-major axis
7,579.049 km
Eccentricity
0.02404
Inclination
105.8355°
RAAN
200.6445°
Arg. of periapsis
224.2049°
True anomaly
315.73189°
Mean anomaly
317.6298°
Eccentric anomaly
316.68507°
Mean motion
3.28943 °/min
Orbital period
109.44 mins
BSTAR
0.002575
Loading maneuver chart data...
Computing Atmospheric mass density...
Loading historical data...
Loading historical data...
Loading historical data...
Loading historical data...
Loading historical data...
Loading historical data...
Loading historical data...

Documentation

Showing up to 5 results
|